1485079200.64,59383,9.94,74304.0,6.27,-34.83,-35.35,0,*76
1485079201.9,59384,10.0,74306.0,6.27,-35.35,-35.89,0,*7A
1485079203.12,59385,9.94,74304.0,6.29,-35.35,-35.71,0,*72
1485079204.38,59386,9.94,74304.5,6.27,-35.17,-35.53,0,*7F
1485079205.63,59387,9.94,74302.8,6.27,-35.17,-35.53,0,*7E
1485079206.87,59388,10.0,74304.0,6.29,-35.01,-35.41,0,*7B
1485079208.09,59389,10.0,74306.8,6.29,-35.17,-35.53,0,*7E
1485079209.32,59390,10.0,74304.0,6.29,-34.77,-35.23,0,*76
1485079210.57,59391,9.94,74304.0,6.29,-34.83,-35.23,0,*7C
1485079211.8,59392,10.0,74306.0,6.29,-35.41,-35.77,0,*71
1485079213.06,59393,9.94,74300.8,6.29,-34.65,-35.07,0,*70
1485079214.28,59394,10.0,74304.8,6.29,-34.41,-34.83,0,*7C
1485079215.53,59395,9.94,74304.3,6.31,-35.13,-35.65,0,*7B
1485079216.76,59396,10.0,74306.0,6.31,-35.29,-35.71,0,*74
1485079218.04,59397,10.0,74308.0,6.35,-35.07,-35.41,0,*7E
1485079219.3,59398,10.0,74306.3,6.35,-35.07,-35.29,0,*7F
1485079220.57,59399,10.0,74306.5,6.35,-35.29,-35.95,0,*75
1485079221.85,59400,10.0,74306.0,6.31,-35.35,-35.83,0,*7C
1485079223.12,59401,9.94,74302.5,6.35,-35.23,-35.65,0,*76
1485079224.39,59402,9.94,74304.8,6.31,-35.65,-36.13,0,*71
1485079225.65,59403,9.94,74302.8,6.31,-35.29,-35.65,0,*7A
1485079226.87,59404,9.94,74302.8,6.31,-34.89,-35.17,0,*73
1485079228.1,59405,9.94,74300.3,6.31,-34.89,-35.29,0,*7F
1485079229.36,59406,9.94,74304.8,6.35,-34.65,-35.13,0,*73
1485079230.62,59407,10.0,74304.5,6.35,-34.19,-34.47,0,*79
1485079231.87,59408,10.0,74304.3,6.35,-34.89,-35.41,0,*78
1485079233.14,59409,9.94,74304.5,6.35,-35.29,-35.95,0,*7B
1485079234.37,59410,9.94,74304.5,6.35,-34.89,-35.29,0,*7F
1485079235.66,59411,9.94,74306.0,6.35,-34.95,-35.41,0,*7D
1485079236.91,59412,10.0,74304.3,6.39,-34.77,-35.07,0,*7C
1485079238.17,59413,10.0,74304.0,6.39,-34.77,-35.07,0,*7D
1485079239.4,59414,9.94,74302.8,6.37,-34.95,-35.29,0,*74
1485079240.66,59415,10.0,74306.8,6.39,-35.35,-35.89,0,*7A
1485079241.91,59416,9.94,74302.5,6.39,-36.01,-36.49,0,*72
1485079243.14,59417,9.94,74306.0,6.39,-35.89,-36.31,0,*7F
1485079244.35,59418,9.94,74302.8,6.37,-36.07,-36.43,0,*7E
1485079245.57,59419,9.94,74304.5,6.37,-35.41,-36.01,0,*78
1485079246.79,59420,10.0,74304.5,6.37,-35.83,-36.19,0,*75
1485079247.99,59421,9.94,74304.5,6.37,-35.13,-35.47,0,*75
1485079249.19,59422,10.0,74304.3,6.37,-34.89,-35.29,0,*7C
1485079250.42,59423,9.94,74306.0,6.39,-34.77,-35.17,0,*7F
1485079251.63,59424,10.0,74302.5,6.37,-34.71,-35.13,0,*74
1485079252.92,59425,9.94,74306.3,6.39,-34.65,-35.07,0,*7B
1485079254.14,59426,9.94,74302.0,6.39,-35.17,-35.59,0,*77
1485079255.4,59427,10.0,74304.3,6.39,-35.23,-35.77,0,*7D
1485079256.61,59428,9.94,74304.0,6.37,-35.29,-35.77,0,*76
1485079257.81,59429,9.94,74304.8,6.41,-34.77,-35.17,0,*7A
1485079259.02,59430,10.0,74304.3,6.41,-35.01,-35.47,0,*77
1485079260.27,59431,9.94,74306.0,6.39,-35.23,-35.71,0,*7C
1485079261.52,59432,9.94,74302.3,6.39,-35.17,-35.53,0,*78
1485079262.73,59433,9.94,74300.5,6.41,-34.77,-35.17,0,*71
1485079263.94,59434,10.0,74304.8,6.41,-34.77,-35.13,0,*72
1485079265.17,59435,9.94,74304.3,6.43,-34.71,-35.13,0,*77
1485079266.43,59436,9.94,74306.3,6.43,-35.29,-35.83,0,*71
1485079267.65,59437,10.0,74306.5,6.41,-35.13,-35.65,0,*73
1485079268.91,59438,9.94,74306.3,6.43,-34.95,-35.29,0,*79
1485079270.15,59439,10.0,74310.3,6.41,-34.83,-35.29,0,*7D
1485079271.37,59440,10.0,74304.3,6.41,-34.83,-35.17,0,*7E
1485079272.63,59441,10.0,74306.8,6.43,-35.01,-35.53,0,*76
1485079273.85,59442,10.0,74304.3,6.43,-35.17,-35.71,0,*72
1485079275.11,59443,9.94,74306.0,6.43,-35.29,-35.83,0,*73
1485079276.33,59444,9.94,74304.8,6.45,-35.13,-35.65,0,*73
1485079277.57,59445,10.0,74306.0,6.43,-35.29,-35.89,0,*7F
1485079278.81,59446,10.0,74306.8,6.43,-35.17,-35.53,0,*76
1485079280.07,59447,10.0,74304.3,6.45,-35.23,-35.83,0,*7B
1485079281.26,59448,10.0,74306.5,6.45,-35.13,-35.59,0,*70
1485079282.51,59449,9.94,74302.8,6.43,-35.13,-35.53,0,*7D
1485079283.76,59450,9.94,74302.5,6.45,-35.07,-35.41,0,*75
1485079285.02,59451,9.94,74306.0,6.45,-35.07,-35.41,0,*74
1485079286.29,59452,9.94,74304.3,6.47,-35.07,-35.65,0,*73
1485079287.5,59453,9.94,74304.3,6.45,-35.29,-35.77,0,*7F
1485079288.76,59454,10.0,74310.0,6.47,-35.29,-35.83,0,*71
1485079289.95,59455,9.94,74300.5,6.45,-35.13,-35.59,0,*7C
1485079291.15,59456,9.94,74304.3,6.45,-34.89,-35.29,0,*7A
1485079292.38,59457,10.0,74306.0,6.45,-34.89,-35.41,0,*75
1485079293.63,59458,9.94,74306.3,6.47,-34.77,-35.23,0,*7D
1485079294.88,59459,10.0,74308.0,6.47,-35.07,-35.47,0,*78
1485079296.11,59460,10.0,74306.8,6.47,-34.89,-35.29,0,*7D
1485079297.37,59461,9.94,74304.5,6.47,-35.07,-35.59,0,*7C
1485079298.62,59462,9.94,74306.3,6.47,-35.07,-35.47,0,*70
1485079299.9,59463,9.94,74302.5,6.47,-35.07,-35.41,0,*77
1485079301.13,59464,9.94,74304.8,6.49,-34.89,-35.53,0,*7A
1485079302.38,59465,10.0,74306.0,6.49,-35.07,-35.53,0,*7C
1485079303.61,59466,9.94,74302.8,6.49,-35.01,-35.35,0,*79
1485079304.84,59467,9.94,74302.5,6.49,-35.01,-35.23,0,*7F
1485079306.1,59468,10.0,74304.3,6.51,-34.83,-35.29,0,*78
1485079307.34,59469,10.0,74306.8,6.49,-35.01,-35.35,0,*76
1485079308.57,59470,9.94,74300.8,6.49,-34.71,-35.07,0,*79
1485079309.81,59471,9.94,74304.8,6.51,-34.77,-35.29,0,*7B
1485079311.06,59472,10.0,74306.0,6.49,-34.83,-35.23,0,*70
1485079312.32,59473,9.94,74302.8,6.51,-34.83,-35.47,0,*7A
1485079313.58,59474,9.94,74300.0,6.51,-34.83,-35.29,0,*75
1485079314.84,59475,10.0,74308.0,6.51,-34.95,-35.29,0,*73
1485079316.07,59476,9.94,74304.0,6.51,-34.77,-35.17,0,*71
1485079317.3,59477,9.94,74304.5,6.53,-34.77,-35.17,0,*72
1485079318.56,59478,9.94,74302.3,6.53,-34.83,-35.29,0,*7B
1485079319.84,59479,9.94,74302.3,6.53,-34.95,-35.35,0,*70
1485079321.1,59480,9.94,74302.3,6.53,-34.95,-35.29,0,*7B
1485079322.35,59481,9.94,74302.3,6.57,-34.89,-35.23,0,*79
1485079323.61,59482,10.0,74304.0,6.57,-34.95,-35.29,0,*7D
1485079324.84,59483,10.0,74306.0,6.57,-34.89,-35.47,0,*79
1485079326.12,59484,10.0,74306.3,6.57,-35.23,-35.65,0,*7F
1485079327.38,59485,10.0,74306.8,6.57,-35.07,-35.47,0,*78
1485079328.63,59486,10.0,74304.3,6.57,-35.23,-35.59,0,*72
1485079329.89,59487,10.0,74306.0,6.57,-34.95,-35.47,0,*70
1485079331.15,59488,9.94,74300.3,6.53,-34.95,-35.47,0,*7B
1485079332.36,59489,9.94,74306.8,6.59,-35.01,-35.59,0,*73
1485079333.56,59490,9.94,74304.0,6.59,-35.17,-35.59,0,*7C
1485079334.82,59491,9.94,74300.0,6.59,-35.35,-35.83,0,*7A
1485079336.08,59492,9.94,74306.3,6.61,-35.23,-35.77,0,*7E
1485079337.3,59493,10.0,74304.5,6.57,-35.13,-35.71,0,*7F
1485079338.53,59494,9.94,74300.8,6.59,-35.17,-35.65,0,*77
1485079339.79,59495,9.94,74300.8,6.61,-35.01,-35.53,0,*7F
1485079341.02,59496,9.94,74304.8,6.59,-35.01,-35.41,0,*74
1485079342.25,59497,9.94,74304.5,6.59,-34.89,-35.53,0,*77
1485079343.45,59498,9.94,74302.3,6.59,-35.59,-36.19,0,*79
1485079344.71,59499,9.94,74302.8,6.59,-35.07,-35.41,0,*7D
1485079345.97,59500,9.94,74306.0,6.61,-35.01,-35.41,0,*71
1485079347.21,59501,10.0,74304.0,6.59,-35.01,-35.53,0,*78
1485079348.44,59502,10.0,74306.0,6.59,-35.01,-35.41,0,*78
1485079349.65,59503,10.0,74304.5,6.59,-35.17,-35.59,0,*77
1485079350.89,59504,10.0,74306.5,6.61,-35.17,-35.65,0,*74
1485079352.15,59505,10.0,74306.3,6.61,-35.23,-35.77,0,*71
1485079353.39,59506,9.94,74302.5,6.59,-35.23,-35.77,0,*79
1485079354.62,59507,10.0,74308.3,6.59,-35.41,-35.77,0,*7C
1485079355.87,59508,9.94,74306.3,6.59,-35.41,-35.83,0,*78
1485079357.12,59509,10.0,74306.3,6.59,-35.35,-35.65,0,*72
1485079358.35,59510,9.94,74304.3,6.61,-35.59,-36.01,0,*7A
1485079359.61,59511,10.0,74306.5,6.61,-35.65,-36.01,0,*74
1485079360.86,59512,10.0,74304.8,6.59,-35.53,-35.95,0,*77
1485079362.09,59513,9.94,74300.5,6.59,-35.65,-36.01,0,*7D
1485079363.32,59514,9.94,74306.3,6.59,-35.65,-36.01,0,*7A
1485079364.57,59515,9.94,74304.8,6.59,-35.65,-36.13,0,*78
1485079365.78,59516,9.94,74304.0,6.59,-35.59,-36.01,0,*77
1485079367.02,59517,9.94,74304.3,6.57,-35.47,-35.89,0,*74
1485079368.24,59518,10.0,74308.0,6.57,-35.71,-36.19,0,*74
1485079369.49,59519,9.94,74304.5,6.57,-35.65,-36.07,0,*7F
1485079370.75,59520,10.0,74306.0,6.57,-35.29,-35.83,0,*72
1485079372.01,59521,9.94,74304.0,6.57,-35.47,-35.83,0,*7B
1485079373.27,59522,10.0,74306.5,6.57,-35.29,-35.83,0,*70
1485079374.5,59523,9.94,74304.3,6.57,-35.59,-35.89,0,*7C
1485079375.74,59524,10.0,74306.3,6.53,-35.29,-35.89,0,*78
1485079376.99,59525,9.94,74302.3,6.57,-35.07,-35.59,0,*7C
1485079378.25,59526,9.94,74304.0,6.57,-35.29,-35.83,0,*74
1485079379.5,59527,10.0,74304.3,6.57,-35.13,-35.65,0,*74
1485079380.76,59528,9.94,74304.8,6.57,-34.95,-35.47,0,*74
1485079381.96,59529,9.94,74304.0,6.59,-35.17,-35.59,0,*7F
1485079383.2,59530,9.94,74300.8,6.59,-35.35,-35.77,0,*7B
1485079384.43,59531,10.0,74308.3,6.59,-35.35,-35.77,0,*7A
1485079385.67,59532,10.0,74304.3,6.59,-35.35,-35.77,0,*79
1485079386.92,59533,9.94,74306.3,6.57,-35.89,-36.37,0,*76
1485079388.17,59534,10.0,74306.0,6.57,-35.71,-36.25,0,*75
1485079389.43,59535,9.94,74302.3,6.53,-35.47,-35.95,0,*7D
1485079390.68,59536,10.0,74304.0,6.53,-35.71,-36.25,0,*73
1485079391.96,59537,9.94,74302.3,6.57,-35.41,-35.83,0,*7A
1485079393.22,59538,9.94,74304.3,6.53,-35.35,-35.89,0,*78
1485079394.44,59539,10.0,74304.8,6.57,-35.17,-35.71,0,*7A
1485079395.72,59540,9.94,74304.8,6.57,-35.41,-35.83,0,*7A
1485079396.98,59541,9.94,74306.3,6.57,-35.29,-35.83,0,*75
1485079398.22,59542,9.94,74304.5,6.57,-35.47,-35.89,0,*74
1485079399.5,59543,9.94,74304.0,6.57,-35.83,-36.25,0,*78
1485079400.78,59544,9.94,74300.3,6.57,-35.41,-35.83,0,*7E
1485079402.03,59545,9.94,74304.5,6.57,-35.47,-35.83,0,*79
1485079403.31,59546,10.0,74304.8,6.53,-35.65,-35.95,0,*79
1485079404.59,59547,10.0,74308.0,6.53,-35.53,-35.95,0,*7D
1485079405.82,59548,9.94,74304.0,6.57,-35.59,-35.89,0,*71
1485079407.1,59549,10.0,74306.5,6.53,-35.53,-35.95,0,*73
1485079408.35,59550,9.94,74306.3,6.53,-35.47,-35.83,0,*79
1485079409.63,59551,10.0,74306.3,6.57,-35.41,-35.83,0,*7A
1485079410.9,59552,10.0,74304.0,6.53,-35.65,-35.95,0,*7C
1485079412.16,59553,10.0,74306.8,6.53,-35.35,-35.77,0,*74
1485079413.41,59554,9.94,74304.0,6.53,-35.53,-35.89,0,*72
1485079414.66,59555,10.0,74306.3,6.53,-35.53,-35.89,0,*73
1485079415.9,59556,9.94,74304.3,6.57,-35.47,-35.89,0,*71
1485079417.13,59557,10.0,74306.0,6.53,-35.47,-35.89,0,*74
1485079418.41,59558,10.0,74304.8,6.53,-35.35,-35.95,0,*73
1485079419.68,59559,10.0,74306.3,6.53,-35.65,-36.13,0,*7A
1485079420.91,59560,9.94,74304.8,6.53,-35.89,-36.31,0,*72
1485079422.15,59561,9.94,74304.0,6.53,-35.53,-36.07,0,*71
1485079423.38,59562,10.0,74306.5,6.51,-35.77,-36.07,0,*76
1485079424.63,59563,9.94,74302.8,6.49,-35.53,-35.95,0,*70
1485079425.85,59564,9.94,74304.8,6.51,-35.17,-35.71,0,*74
1485079427.11,59565,9.94,74304.8,6.51,-35.35,-35.77,0,*73
1485079428.37,59566,9.94,74302.8,6.51,-35.65,-35.89,0,*74
1485079429.6,59567,9.94,74300.3,6.49,-35.77,-36.13,0,*7F
1485079430.84,59568,10.0,74306.3,6.51,-35.65,-36.07,0,*7F
1485079432.1,59569,9.94,74300.8,6.51,-35.77,-36.13,0,*78
1485079433.36,59570,10.0,74304.0,6.51,-35.47,-35.95,0,*7E
1485079434.61,59571,9.94,74302.5,6.49,-35.41,-35.83,0,*77
1485079435.86,59572,10.0,74306.5,6.51,-35.65,-35.89,0,*71
1485079437.14,59573,10.0,74306.3,6.51,-35.65,-35.95,0,*7D
1485079438.4,59574,10.0,74306.0,6.51,-35.77,-36.13,0,*74
1485079439.6,59575,10.0,74304.8,6.49,-35.59,-36.01,0,*73
1485079440.83,59576,10.0,74304.8,6.49,-35.59,-35.95,0,*7E
1485079442.06,59577,10.0,74304.5,6.49,-35.53,-36.01,0,*7B
1485079443.27,59578,9.94,74304.5,6.49,-35.71,-36.01,0,*74
1485079444.54,59579,10.0,74306.0,6.51,-35.53,-35.95,0,*72
1485079445.76,59580,10.0,74304.0,6.49,-35.59,-36.13,0,*7A
1485079446.99,59581,9.94,74304.0,6.49,-35.59,-36.13,0,*7B
1485079448.22,59582,9.94,74304.5,6.49,-35.77,-36.13,0,*74
1485079449.42,59583,9.94,74302.3,6.49,-35.71,-36.01,0,*70
1485079450.65,59584,10.0,74304.3,6.49,-35.83,-36.19,0,*73
1485079451.85,59585,9.94,74302.8,6.49,-35.71,-36.19,0,*7F
1485079453.07,59586,10.0,74304.3,6.49,-35.59,-36.13,0,*7C
1485079454.3,59587,9.94,74306.0,6.49,-35.83,-36.31,0,*7A
1485079455.53,59588,10.0,74306.3,6.49,-35.95,-36.31,0,*72
1485079456.73,59589,9.94,74302.8,6.49,-35.71,-36.01,0,*7A
1485079457.99,59590,10.0,74306.0,6.49,-35.83,-36.13,0,*7C
1485079459.26,59591,10.0,74304.8,6.47,-35.83,-36.37,0,*75
1485079460.48,59592,9.94,74304.8,6.45,-36.19,-36.61,0,*77
1485079461.68,59593,10.0,74306.5,6.45,-36.19,-36.73,0,*75
1485079462.88,59594,10.0,74306.8,6.45,-36.19,-36.55,0,*76
1485079464.11,59595,9.94,74302.8,6.45,-36.25,-36.55,0,*78
1485079465.32,59596,10.0,74304.0,6.45,-36.07,-36.55,0,*7B
1485079466.52,59597,10.0,74304.0,6.45,-36.01,-36.43,0,*7B
1485079467.75,59598,9.94,74300.5,6.47,-35.47,-35.89,0,*72
1485079468.99,59599,10.0,74306.8,6.43,-35.47,-35.89,0,*77
1485079470.21,59600,10.0,74308.3,6.43,-35.29,-35.71,0,*7B
1485079471.49,59601,10.0,74306.5,6.43,-35.83,-36.25,0,*78
1485079472.77,59602,9.94,74302.8,6.43,-35.83,-36.13,0,*7E
1485079474.04,59603,10.0,74304.5,6.43,-35.53,-35.95,0,*7F
1485079475.29,59604,10.0,74304.5,6.43,-35.65,-36.07,0,*75
1485079476.53,59605,10.0,74304.3,6.43,-35.53,-36.07,0,*71
1485079477.76,59606,10.0,74304.0,6.43,-35.47,-35.89,0,*72
1485079479.0,59607,10.0,74306.8,6.43,-35.53,-36.07,0,*73
1485079480.27,59608,9.94,74302.5,6.43,-35.65,-36.13,0,*7C
1485079481.52,59609,10.0,74306.5,6.43,-35.89,-36.13,0,*7F
1485079482.76,59610,9.94,74302.0,6.41,-35.35,-35.89,0,*72
1485079484.01,59611,9.94,74300.8,6.43,-35.71,-36.13,0,*71
1485079485.26,59612,9.94,74304.0,6.41,-35.35,-35.83,0,*7A
1485079486.51,59613,9.94,74302.8,6.41,-35.35,-35.83,0,*7B
1485079487.74,59614,10.0,74304.8,6.41,-35.71,-36.13,0,*76
1485079488.98,59615,10.0,74306.5,6.43,-35.17,-35.65,0,*77
1485079490.22,59616,9.94,74302.3,6.43,-35.47,-35.89,0,*73
1485079491.44,59617,9.94,74302.3,6.41,-35.17,-35.65,0,*77
1485079492.66,59618,9.94,74302.3,6.41,-35.53,-35.89,0,*7A
1485079493.88,59619,10.0,74304.5,6.41,-35.65,-36.07,0,*7B
1485079495.16,59620,10.0,74306.8,6.43,-35.83,-36.25,0,*7B
1485079496.39,59621,9.94,74302.8,6.41,-35.71,-36.13,0,*70
1485079497.62,59622,10.0,74308.3,6.41,-35.71,-36.25,0,*76
1485079498.84,59623,9.94,74302.0,6.41,-35.53,-36.07,0,*77
1485079500.03,59624,10.0,74302.5,6.41,-35.71,-36.07,0,*70
1485079501.31,59625,10.0,74304.5,6.39,-35.41,-35.95,0,*75
1485079502.54,59626,9.94,74300.8,6.37,-35.53,-35.89,0,*76
1485079503.79,59627,9.94,74300.8,6.39,-35.17,-35.41,0,*7D
1485079505.01,59628,10.0,74304.0,6.39,-35.17,-35.59,0,*7B
1485079506.26,59629,10.0,74304.3,6.39,-35.23,-35.59,0,*7D
1485079507.5,59630,9.94,74302.8,6.39,-35.59,-36.01,0,*76
1485079508.78,59631,9.94,74302.5,6.39,-35.41,-35.95,0,*70
1485079510.03,59632,9.94,74300.0,6.39,-35.41,-35.89,0,*7E
1485079511.24,59633,9.94,74302.0,6.41,-35.13,-35.47,0,*75
1485079512.49,59634,10.0,74304.0,6.39,-35.95,-36.31,0,*71
1485079513.72,59635,9.94,74300.0,6.39,-35.89,-36.31,0,*7D
1485079514.97,59636,10.0,74302.3,6.39,-35.23,-35.71,0,*79
1485079516.18,59637,10.0,74302.8,6.41,-35.01,-35.47,0,*72
1485079517.39,59638,10.0,74302.5,6.41,-35.01,-35.47,0,*7D
1485079518.62,59639,10.0,74302.3,6.41,-35.13,-35.53,0,*7A
1485079519.85,59640,10.0,74304.8,6.41,-34.95,-35.29,0,*76
1485079521.11,59641,10.0,74306.3,6.39,-35.17,-35.41,0,*7D
1485079522.33,59642,10.0,74304.5,6.39,-35.17,-35.59,0,*77
1485079523.55,59643,10.0,74306.0,6.37,-35.65,-36.07,0,*75
1485079524.8,59644,10.0,74302.8,6.39,-35.77,-36.13,0,*7A
1485079526.06,59645,10.0,74306.0,6.39,-35.59,-35.95,0,*7A
1485079527.29,59646,9.94,74302.0,6.39,-35.89,-36.31,0,*79
1485079528.54,59647,9.94,74304.8,6.39,-35.53,-36.01,0,*7C
1485079529.78,59648,10.0,74306.8,6.37,-35.41,-35.65,0,*7F
1485079530.98,59649,9.94,74300.0,6.37,-35.77,-36.07,0,*7C
1485079532.23,59650,10.0,74304.3,6.37,-35.41,-35.83,0,*7E
1485079533.48,59651,9.94,74300.5,6.37,-35.41,-35.95,0,*78
1485079534.71,59652,10.0,74300.5,6.37,-35.47,-35.83,0,*7A
1485079535.93,59653,10.0,74300.3,6.37,-35.59,-35.95,0,*73
1485079537.14,59654,10.0,74304.3,6.37,-35.59,-36.01,0,*7A
1485079538.35,59655,9.94,74300.5,6.37,-35.65,-36.07,0,*72
1485079539.61,59656,9.94,74300.0,6.37,-35.95,-36.25,0,*7E
1485079540.81,59657,10.0,74306.5,6.37,-35.77,-36.19,0,*7C
1485079542.01,59658,10.0,74302.5,6.37,-35.59,-36.01,0,*76
1485079543.25,59659,10.0,74304.3,6.31,-35.47,-35.89,0,*7D
1485079544.5,59660,10.0,74304.0,6.35,-35.65,-36.01,0,*70
1485079545.76,59661,9.94,74302.5,6.35,-35.59,-35.95,0,*70
1485079546.99,59662,10.0,74304.8,6.31,-35.47,-35.89,0,*75
1485079548.24,59663,9.94,74300.0,6.31,-35.65,-36.07,0,*71
1485079549.48,59664,10.0,74304.8,6.35,-35.29,-35.77,0,*7E
1485079550.73,59665,10.0,74306.0,6.35,-35.29,-35.65,0,*7C
1485079551.96,59666,10.0,74306.5,6.31,-35.71,-36.07,0,*71
1485079553.23,59667,10.0,74304.3,6.31,-35.53,-35.83,0,*7F
1485079554.48,59668,9.94,74300.8,6.31,-35.53,-36.01,0,*79
1485079555.72,59669,10.0,74304.0,6.31,-35.47,-35.89,0,*7E
1485079556.96,59670,10.0,74304.5,6.31,-35.47,-35.89,0,*76
1485079558.21,59671,9.94,74300.8,6.31,-35.47,-35.83,0,*7D
1485079559.47,59672,10.0,74304.3,6.31,-35.65,-36.01,0,*77
1485079560.74,59673,10.0,74304.5,6.31,-35.53,-35.83,0,*7A
1485079561.98,59674,10.0,74306.0,6.31,-35.47,-35.89,0,*72
1485079563.23,59675,9.94,74300.8,6.31,-35.29,-35.53,0,*7C
1485079564.49,59676,9.94,74300.8,6.31,-35.47,-35.83,0,*7A
1485079565.74,59677,10.0,74304.8,6.35,-35.23,-35.47,0,*75
1485079567.0,59678,10.0,74304.3,6.31,-35.29,-35.65,0,*74
1485079568.23,59679,10.0,74306.0,6.31,-35.29,-35.71,0,*70
1485079569.5,59680,10.0,74304.8,6.31,-35.35,-35.65,0,*7E
1485079570.75,59681,10.0,74306.0,6.31,-35.65,-36.07,0,*7D
1485079572.0,59682,10.0,74306.0,6.31,-35.83,-36.07,0,*76
1485079573.23,59683,10.0,74302.5,6.31,-35.29,-35.71,0,*75
1485079574.48,59684,10.0,74304.3,6.31,-35.29,-35.65,0,*77
1485079575.73,59685,10.0,74306.0,6.31,-35.29,-35.65,0,*76
1485079576.98,59686,9.94,74302.0,6.31,-35.17,-35.53,0,*7D
1485079578.24,59687,10.0,74304.3,6.31,-35.17,-35.53,0,*7C
1485079579.49,59688,10.0,74304.8,6.31,-35.17,-35.53,0,*73
1485079580.74,59689,10.0,74304.3,6.31,-35.29,-35.53,0,*7F
1485079582.02,59690,10.0,74306.3,6.31,-35.35,-35.83,0,*77
1485079583.28,59691,9.94,74302.0,6.31,-35.89,-36.25,0,*7E
1485079584.54,59692,10.0,74306.0,6.31,-35.83,-36.31,0,*72
1485079585.78,59693,10.0,74300.8,6.31,-35.53,-36.07,0,*7B
1485079587.03,59694,10.0,74304.0,6.29,-35.53,-35.95,0,*7D
1485079588.25,59695,10.0,74302.3,6.29,-35.41,-35.71,0,*75
1485079589.46,59696,10.0,74304.0,6.29,-35.53,-36.07,0,*77
1485079590.73,59697,10.0,74306.5,6.27,-35.59,-35.95,0,*7A
1485079591.99,59698,9.94,74300.5,6.27,-35.77,-36.13,0,*74
1485079593.25,59699,10.0,74304.5,6.27,-35.59,-35.95,0,*74
1485079594.51,59700,10.0,74306.8,6.27,-35.59,-35.95,0,*75
1485079595.75,59701,10.0,74304.0,6.27,-35.71,-35.89,0,*73
1485079597.01,59702,10.0,74304.3,6.27,-35.59,-35.95,0,*77
1485079598.27,59703,10.0,74304.0,6.27,-35.53,-35.77,0,*70
1485079599.53,59704,10.0,74304.5,6.27,-35.41,-35.77,0,*74
1485079600.81,59705,10.0,74306.3,6.27,-35.53,-35.95,0,*7A
1485079602.06,59706,10.0,74306.5,6.27,-35.41,-35.71,0,*70
1485079603.3,59707,10.0,74304.3,6.25,-35.47,-35.95,0,*7F
1485079604.54,59708,10.0,74304.0,6.25,-35.47,-35.83,0,*77
1485079605.79,59709,10.0,74306.3,6.27,-35.35,-35.59,0,*76
1485079607.02,59710,10.0,74306.5,6.27,-35.59,-36.07,0,*7C
1485079608.24,59711,10.0,74306.3,6.27,-35.59,-36.07,0,*7D
1485079609.5,59712,10.0,74306.3,6.27,-35.41,-35.89,0,*72
1485079610.79,59713,10.0,74306.0,6.27,-35.07,-35.41,0,*75
1485079612.05,59714,10.0,74304.5,6.27,-35.89,-36.37,0,*76
1485079613.29,59715,10.0,74302.5,6.25,-36.25,-36.55,0,*74
1485079614.55,59716,10.0,74304.5,6.23,-36.37,-36.73,0,*76
1485079615.83,59717,10.0,74304.0,6.23,-35.83,-36.25,0,*78
1485079617.11,59718,10.0,74306.0,6.23,-35.41,-35.65,0,*7E
1485079618.36,59719,10.0,74308.0,6.25,-35.41,-35.65,0,*79
1485079619.62,59720,10.0,74302.3,6.23,-35.41,-35.77,0,*76
1485079620.83,59721,10.0,74302.8,6.25,-35.29,-35.77,0,*7F
1485079622.11,59722,10.0,74304.3,6.23,-35.23,-35.65,0,*73
1485079623.37,59723,10.0,74304.3,6.23,-35.23,-35.47,0,*72
1485079624.6,59724,9.94,74300.0,6.23,-35.29,-35.59,0,*70
1485079625.87,59725,10.0,74302.5,6.25,-35.07,-35.41,0,*72
1485079627.12,59726,10.0,74304.0,6.23,-35.29,-35.65,0,*7D
1485079628.38,59727,10.0,74302.8,6.23,-35.23,-35.59,0,*79
1485079629.64,59728,10.0,74300.8,6.23,-35.59,-35.95,0,*7B
1485079630.89,59729,10.0,74304.8,6.25,-35.65,-36.13,0,*7E
1485079632.14,59730,10.0,74304.5,6.23,-35.23,-35.59,0,*7F
1485079633.43,59731,10.0,74302.0,6.23,-35.23,-35.41,0,*77
1485079634.68,59732,10.0,74302.0,6.23,-35.13,-35.41,0,*77
1485079635.94,59733,10.0,74302.8,6.23,-35.23,-35.59,0,*7C
1485079637.21,59734,10.0,74302.8,6.23,-35.65,-36.13,0,*74
1485079638.47,59735,10.0,74304.0,6.23,-35.77,-36.25,0,*73
1485079639.74,59736,10.0,74300.5,6.23,-35.47,-35.95,0,*7B
1485079640.99,59737,10.0,74302.3,6.23,-35.59,-36.13,0,*78
1485079642.19,59738,10.0,74300.5,6.21,-35.71,-36.07,0,*7A
1485079643.42,59739,10.0,74302.3,6.21,-35.47,-35.83,0,*71
1485079644.68,59740,10.0,74300.8,6.21,-35.07,-35.35,0,*76
1485079645.93,59741,10.0,74306.5,6.21,-34.95,-35.35,0,*7D
1485079647.14,59742,10.0,74306.3,6.21,-35.13,-35.47,0,*74
1485079648.37,59743,10.0,74300.8,6.21,-35.07,-35.47,0,*70
1485079649.6,59744,10.0,74300.5,6.21,-35.29,-35.65,0,*7B
1485079650.83,59745,10.0,74300.8,6.21,-35.47,-35.83,0,*7A
1485079652.06,59746,10.0,74306.5,6.23,-35.29,-35.59,0,*74
1485079653.29,59747,10.0,74304.3,6.23,-35.29,-35.59,0,*75
1485079654.52,59748,10.0,74302.0,6.21,-35.47,-35.83,0,*77
1485079655.77,59749,10.0,74302.0,6.21,-35.35,-35.65,0,*7B
1485079656.99,59750,10.0,74302.8,6.21,-35.17,-35.53,0,*76
1485079658.22,59751,10.0,74300.8,6.21,-35.29,-35.65,0,*7F
1485079659.46,59752,10.0,74302.3,6.19,-35.47,-35.83,0,*77
1485079660.69,59753,10.0,74302.5,6.19,-35.47,-35.83,0,*76
1485079661.95,59754,10.0,74302.8,6.19,-35.53,-35.83,0,*74
1485079663.18,59755,10.0,74300.8,6.21,-35.47,-35.83,0,*7B
1485079664.41,59756,10.0,74304.5,6.19,-35.53,-35.89,0,*7C
1485079665.61,59757,9.94,74302.0,6.21,-35.71,-36.19,0,*7C
1485079666.84,59758,10.0,74306.8,6.19,-35.53,-36.01,0,*71
1485079668.04,59759,10.0,74300.5,6.19,-35.47,-35.71,0,*71
1485079669.26,59760,10.0,74306.8,6.19,-35.47,-36.01,0,*7F
1485079670.49,59761,10.0,74306.5,6.19,-35.71,-36.25,0,*7D
1485079671.71,59762,9.94,74302.0,6.19,-35.53,-35.71,0,*7C
1485079672.96,59763,10.0,74302.8,6.17,-35.41,-35.71,0,*70
1485079674.19,59764,10.0,74300.5,6.15,-35.35,-35.59,0,*7C
1485079675.43,59765,10.0,74302.8,6.15,-35.41,-35.65,0,*71
1485079676.72,59766,10.0,74302.3,6.17,-35.41,-35.95,0,*7F
1485079677.95,59767,10.0,74304.3,6.15,-35.47,-35.95,0,*7A
1485079679.21,59768,10.0,74304.8,6.17,-35.41,-35.77,0,*7D
1485079680.46,59769,9.94,74300.3,6.17,-35.41,-35.77,0,*7C
1485079681.7,59770,10.0,74304.5,6.15,-35.59,-35.95,0,*73
1485079682.93,59771,10.0,74304.0,6.15,-35.47,-35.83,0,*7A
1485079684.19,59772,10.0,74304.5,6.17,-35.41,-35.89,0,*77
1485079685.44,59773,10.0,74300.8,6.15,-35.41,-35.83,0,*7E
1485079686.69,59774,10.0,74302.0,6.17,-35.17,-35.53,0,*75
1485079687.93,59775,10.0,74304.0,6.15,-35.59,-35.95,0,*76
1485079689.18,59776,9.94,74298.8,6.17,-35.41,-35.77,0,*72
1485079690.39,59777,10.0,74306.8,6.15,-35.59,-36.01,0,*7A
1485079691.62,59778,10.0,74304.3,6.15,-35.23,-35.77,0,*7A
1485079692.85,59779,9.94,74302.3,6.15,-35.41,-35.77,0,*7F
1485079694.11,59780,10.0,74300.3,6.15,-35.41,-35.83,0,*72
1485079695.31,59781,10.0,74302.5,6.15,-35.59,-36.01,0,*73
1485079696.54,59782,10.0,74300.3,6.15,-35.47,-35.65,0,*7E
1485079697.76,59783,10.0,74304.3,6.15,-35.23,-35.59,0,*72
1485079699.02,59784,10.0,74306.0,6.17,-35.23,-35.59,0,*77
1485079700.25,59785,10.0,74304.0,6.15,-35.41,-35.77,0,*7C
1485079701.5,59786,10.0,74302.5,6.13,-35.41,-35.77,0,*79
1485079702.73,59787,10.0,74300.3,6.15,-35.29,-35.65,0,*73
1485079703.96,59788,9.94,74302.0,6.15,-35.41,-35.77,0,*71
1485079705.17,59789,10.0,74300.8,6.15,-35.47,-35.77,0,*76
1485079706.4,59790,10.0,74302.5,6.15,-35.47,-35.83,0,*75
1485079707.65,59791,10.0,74302.0,6.13,-35.23,-35.59,0,*77
1485079708.91,59792,10.0,74304.0,6.13,-35.07,-35.47,0,*7D
1485079710.16,59793,10.0,74304.8,6.13,-35.17,-35.41,0,*7B
1485079711.41,59794,10.0,74302.5,6.13,-35.23,-35.47,0,*7D
1485079712.68,59795,10.0,74304.5,6.13,-35.41,-35.65,0,*78
1485079713.93,59796,10.0,74304.5,6.13,-35.29,-35.65,0,*75